Погода в Кано

Нигерия     11°59′28″N   8°32′01″E
темп.,
°C
ветер,
м/с
пор.,
м/с
влажн.,
%
обл.,
%
осадки,
мм/ч
давл.,
гПа
погр.,
м
6 мая, чт
чт601:00+30сз121599 0.0 100716
04:00+27ююз472579 0.0 1007122
07:00+27юз512445 0.0 1010475
10:00+34зюз66325 0.0 10101146
13:00+39ссз34135 0.0 10073979
16:00+40св331182 0.0 10044509
19:00+36св4510100 0.0 1004442
22:00+34всв351061 0.0 100788
7 мая, пт
пт701:00+29юз713395 0.0 1008307
04:00+27юз7135729 0.0 1009522
07:00+26юз7146989 0.0 1011595
10:00+32зюз8944100 0.0 10111056
13:00+37з4424100 0.0 10092364
16:00+39з3418100 0.0 10063559
19:00+35зюз3421100 0.0 1006444
22:00+28юз5105097 0.0 1010302
8 мая, сб
сб801:00+27юз71346100 0.0 1010464
04:00+27юз7145199 0.0 1009477
07:00+26ююз6126599 0.0 1011552
10:00+32зюз7841100 0.0 10111003
13:00+38з332355 0.0 10092569
16:00+40с241595 0.0 10054505
19:00+37ссв3417100 0.0 10061221
22:00+27ююз813585 0.0 1011379
9 мая, вс
вс901:00+25ююз612629 0.0 1010364
04:00+25ююз51258100 0.0 1010376
07:00+25ю511605 0.0 1012538
10:00+31юз564138 0.0 10131012
13:00+36юз432714 0.0 10102017
16:00+38сз252127 0.0 10063948
19:00+27юв71454100 0.3 1010356
22:00+30з3337100 0.8 1011137
10 мая, пн
пн1001:00+28зюз574999 0.8 1011293
04:00+26юз4650100 0.0 1010188
07:00+27ю4649100 0.0 1011207
10:00+34ю332951 0.0 1012792
13:00+39ссв1419100 0.0 10092848
16:00+40ссв361598 0.0 10063611
19:00+37в691753 0.0 1006581
22:00+31юз583650 0.0 1010265